Temp
20 19 18 19 21 23 23 23 21 22 24 23 22 22 23 23 23 22 21 21 20 18 17 17 17 16 14 14 13 12 11 11 11 10 10 10 9 8 7 7 7 7 7 7
20 19 21 24 24 23 22 21 21 22 23 23 21 22 21 23 23 23 22 21 21 19 17 17 14 14 13 13 12 12 11 11 11 11 11 10 9 8 7 6 6 6 6 6
20 22 25 24 23 23 22 21 21 21 22 21 22 22 21 23 24 24 24 22 22 19 17 16 14 13 13 13 13 12 12 11 11 11 11 10 9 7 6 5 5 5 5 5
22 24 24 22 22 22 21 23 23 22 20 18 23 19 21 22 23 24 25 21 21 18 17 16 14 13 13 13 13 12 12 11 11 12 11 10 9 7 6 6 5 4 5 4
20 21 21 21 22 23 22 22 22 21 19 18 20 18 21 22 21 22 19 18 20 17 16 15 14 13 13 14 13 13 12 11 11 11 11 10 9 8 6 6 5 4 4 4
20 21 21 21 23 23 22 21 20 20 18 17 20 18 20 21 21 21 19 18 18 17 16 14 14 13 12 13 12 12 11 11 10 10 10 9 8 7 7 6 4 4 4 3
20 21 22 23 21 22 21 19 16 15 15 17 20 20 20 22 21 20 19 17 17 17 16 14 13 12 11 11 11 11 10 9 9 9 9 9 8 8 7 6 5 4 3 3
18 18 21 23 21 21 20 20 16 16 15 17 21 18 19 22 22 21 20 18 18 17 16 14 13 12 11 10 10 10 9 8 8 8 8 8 8 7 7 6 5 4 3 3
18 18 21 22 22 21 20 18 20 18 19 17 18 18 20 21 19 17 19 18 16 15 15 14 13 11 10 9 10 10 9 8 8 8 7 7 7 7 6 6 5 4 3 2
19 16 19 20 20 20 19 20 18 16 16 16 16 17 15 17 17 17 17 14 16 15 15 14 13 11 10 9 10 10 9 8 8 7 7 7 6 6 5 5 4 3 2 2
17 15 15 18 18 17 18 17 17 17 16 15 14 14 15 16 16 16 16 16 11 16 13 14 13 11 10 10 10 10 9 8 7 7 6 6 5 5 4 4 3 3 2 1
15 15 13 15 17 18 17 17 17 13 12 12 11 12 16 16 17 16 16 17 16 14 13 9 12 11 9 9 9 9 9 8 7 6 6 5 5 4 4 3 2 2 1 1
13 12 12 13 14 15 16 17 16 14 12 11 11 12 17 17 16 14 12 14 15 16 15 11 10 9 10 9 8 8 8 7 7 6 5 5 4 3 3 2 1 1 0 -0
13 12 12 10 12 13 12 14 15 14 10 10 11 11 12 15 13 14 12 12 15 15 16 10 9 9 9 9 8 6 6 7 6 5 4 4 3 2 2 1 1 0 -0 -1
12 9 10 10 12 13 13 13 13 13 13 10 10 11 13 15 15 14 14 15 16 17 14 13 10 9 9 8 8 6 5 6 5 4 3 3 2 2 1 0 -0 -1 -1 -2
10 9 10 9 11 12 11 12 12 13 13 13 14 13 14 16 16 15 16 16 17 16 15 14 13 10 9 9 7 5 4 4 4 3 2 2 1 -0 -0 -1 -2 -2 -2 -3
9 8 9 10 10 11 10 10 12 12 13 14 13 14 15 16 16 15 13 13 14 16 16 14 13 10 10 10 8 5 4 4 2 1 1 0 -1 -1 -1 -2 -2 -3 -3 -3
9 9 9 9 10 9 12 14 13 13 14 14 15 14 14 13 10 10 10 9 10 12 11 14 13 11 11 10 8 5 4 4 2 1 1 0 -0 -1 -1 -1 -2 -2 -2 -2
10 9 9 9 10 11 12 14 14 13 11 13 12 13 11 11 12 9 10 10 9 9 10 9 11 12 10 9 7 5 4 4 2 2 1 1 0 -0 -0 -0 -1 -1 -1 -1
11 10 9 9 9 9 13 15 16 14 10 13 12 12 11 10 8 9 9 8 9 9 10 10 11 9 8 8 6 5 5 4 3 2 1 2 1 0 0 0 -0 0 0 0
9 8 8 9 9 10 11 11 14 10 10 10 11 11 10 8 8 9 9 9 10 9 9 11 10 8 7 7 6 5 4 4 3 3 2 1 1 1 -0 -1 1 1 1 -0
8 8 7 8 8 9 10 10 10 10 9 7 11 12 10 9 10 10 10 10 10 10 10 11 9 8 8 6 5 5 4 4 3 1 1 0 1 -1 -1 1 1 1 0 -1
7 9 7 7 8 10 9 10 10 10 10 11 10 12 11 10 11 11 9 9 10 10 10 10 9 7 7 6 5 5 3 2 1 1 0 0 -0 1 1 1 1 -1 -1 -2
7 8 6 9 10 11 10 11 12 11 13 13 13 12 10 10 10 10 9 9 9 8 10 8 8 7 6 6 5 3 3 2 1 0 0 1 1 1 1 1 -0 -1 -2 -3
7 6 8 7 8 12 13 12 13 13 13 13 14 12 11 10 10 10 9 9 8 7 8 8 8 7 5 5 4 3 2 1 0 0 1 0 -0 0 1 0 -1 -1 -1 -1
9 9 7 8 11 11 11 12 12 13 13 14 12 12 12 11 10 9 8 8 7 7 7 7 7 6 6 5 3 3 2 1 1 1 1 0 0 0 0 -0 -1 -1 -1 -1
Height
757 771 772 763 752 746 747 750 755 743 728 737 739 736 725 717 716 718 719 719 723 730 736 743 750 756 764 772 780 787 792 797 799 801 803 804 806 809 811 813 815 816 816 817
764 769 747 739 739 741 745 752 753 741 727 731 736 727 725 718 713 709 711 712 715 726 735 741 748 753 761 769 777 784 790 794 796 798 800 802 804 809 811 814 816 816 817 816
760 747 730 733 739 744 747 753 749 749 737 730 732 727 727 710 702 696 693 697 698 710 726 736 744 751 758 765 772 780 787 791 794 796 799 803 806 809 812 815 816 817 817 816
743 729 735 740 745 742 751 739 737 740 747 760 731 754 722 716 709 695 688 691 698 709 720 732 741 749 754 762 769 776 782 789 793 794 796 798 801 806 811 812 814 815 816 814
752 742 745 747 742 736 738 732 738 738 751 751 739 763 711 713 712 695 694 689 694 705 713 727 736 744 751 760 767 773 780 787 791 793 795 798 803 806 808 811 813 815 816 816
746 735 738 734 726 727 726 733 739 740 749 762 736 752 726 719 706 699 699 695 697 707 718 728 736 743 752 760 765 771 778 784 789 793 795 797 800 805 807 809 812 814 815 816
744 736 731 724 732 724 729 742 767 771 767 758 727 733 719 701 696 697 700 702 705 709 716 726 735 742 750 756 762 768 775 782 788 793 796 798 799 802 805 809 810 812 814 816
757 745 725 718 727 730 727 732 754 758 759 744 720 731 723 693 690 699 707 705 709 714 719 724 731 739 747 753 758 765 774 781 787 791 795 797 799 802 804 807 809 811 813 815
753 745 716 719 716 723 727 733 721 732 727 739 729 716 702 691 701 708 703 702 711 714 718 723 732 739 745 752 756 762 769 778 785 790 793 796 798 800 802 805 808 810 813 815
737 747 723 718 716 711 722 717 734 735 741 738 728 723 734 714 714 709 713 717 712 714 720 725 732 738 743 751 757 762 767 774 782 788 792 795 797 799 801 804 808 810 813 816
743 742 739 725 726 729 724 725 726 723 730 738 738 739 713 710 709 711 712 717 726 716 722 724 730 735 737 745 754 759 765 772 779 785 790 793 796 798 801 805 808 811 814 815
741 743 746 738 724 720 724 725 725 741 747 749 750 741 709 712 710 711 710 714 715 718 716 720 724 730 737 743 750 754 760 769 777 783 789 792 795 797 800 804 809 812 813 814
747 748 744 734 732 725 726 719 724 733 747 749 743 734 706 708 711 724 724 723 717 716 715 721 723 728 733 740 745 750 756 764 773 781 786 791 794 797 800 803 806 809 811 813
747 744 743 752 739 735 735 726 723 728 753 745 737 733 718 718 727 727 726 725 717 709 710 715 720 724 728 733 739 746 755 761 769 778 785 787 792 797 800 803 804 807 810 813
740 751 750 743 736 731 728 724 721 721 722 742 740 734 714 712 710 717 713 710 705 699 701 703 711 716 721 727 733 739 749 755 761 767 779 785 791 795 800 804 803 806 809 813
739 743 740 741 730 730 732 720 721 718 714 713 713 712 705 699 700 700 692 689 690 688 690 695 703 711 717 723 729 736 746 753 759 767 775 783 789 794 796 801 804 805 808 812
741 745 739 729 726 726 734 715 714 706 702 702 706 695 694 693 690 694 696 695 691 687 685 690 697 703 710 716 721 730 740 750 757 766 773 781 787 792 795 798 802 805 807 811
735 736 736 732 726 730 700 693 693 695 688 691 690 692 689 692 702 703 703 702 700 695 692 686 686 693 701 711 720 731 740 746 754 762 771 779 784 788 794 797 801 804 807 810
720 731 731 727 717 705 693 690 688 692 694 689 689 687 694 694 693 700 696 698 700 699 696 697 688 687 697 707 715 725 738 744 752 759 766 774 780 785 790 795 798 803 807 809
709 717 727 726 725 715 684 679 672 681 703 677 680 687 693 692 708 704 696 698 698 697 697 698 693 689 695 705 714 724 733 742 749 755 761 769 776 781 786 791 797 801 805 808
712 719 715 707 715 705 689 690 677 700 705 697 689 692 696 701 704 698 695 698 698 694 703 699 697 695 699 705 713 723 731 739 745 752 759 766 772 779 784 791 795 799 804 806
718 714 717 708 710 703 694 694 700 695 703 703 692 685 692 695 696 695 694 695 695 695 699 699 700 700 703 707 713 722 729 736 743 749 755 764 770 778 784 788 793 797 801 806
718 705 714 714 707 685 689 685 686 685 686 687 688 684 687 691 692 692 694 695 694 694 697 698 702 704 708 711 715 722 729 734 741 748 755 763 770 776 781 785 790 796 800 804
719 711 713 699 687 681 684 681 679 680 677 678 679 682 685 688 688 689 690 690 693 693 695 696 701 706 713 715 718 722 730 736 741 748 754 762 768 774 780 784 789 793 798 803
720 721 704 703 695 676 672 673 674 674 674 674 674 677 679 682 684 684 685 686 689 690 693 694 699 705 712 714 719 724 730 736 742 749 755 762 768 773 778 783 787 792 797 801
703 701 704 698 678 677 677 673 673 672 673 672 673 674 673 675 677 679 682 683 685 688 688 694 698 705 710 715 720 725 730 736 742 748 754 759 765 771 776 782 787 793 796 800
Wind_Speed
7 4 8 11 14 12 9 10 6 7 15 7 12 10 11 8 7 10 12 15 16 19 21 31 34 35 35 32 27 22 20 17 19 22 23 23 22 16 13 11 10 11 11 11
4 11 15 14 13 6 7 9 10 7 10 9 9 15 9 8 8 9 13 15 19 16 20 21 29 35 33 32 27 23 20 21 22 24 24 23 21 15 15 13 11 11 12 12
8 10 10 7 6 7 8 8 9 12 8 7 6 16 10 11 11 11 11 20 23 24 24 21 24 30 34 34 32 26 21 24 23 23 25 25 23 20 19 15 14 12 12 13
5 5 6 7 7 5 14 8 13 12 5 7 4 14 16 11 13 19 20 11 20 22 22 19 20 27 30 32 31 26 22 19 27 27 30 28 24 21 21 17 14 13 12 13
6 7 10 12 11 11 17 9 11 5 6 7 1 5 23 5 12 15 5 9 22 25 25 22 19 27 31 32 28 29 26 21 18 15 18 21 18 25 23 16 15 14 13 13
11 7 6 12 17 12 9 5 8 5 2 11 10 7 21 16 12 2 4 9 22 23 20 18 24 27 28 31 30 27 22 19 16 17 17 23 30 26 21 19 19 17 15 14
9 17 15 15 17 16 11 2 6 4 4 12 16 13 15 13 2 10 11 14 18 20 20 19 19 19 26 31 32 27 26 20 17 16 16 21 22 20 21 22 21 20 15 14
10 23 8 5 11 13 8 15 9 5 5 9 10 8 7 8 14 9 5 10 14 16 17 19 19 22 28 30 34 29 24 21 18 18 19 20 20 21 20 20 20 19 14 13
12 21 23 10 12 7 8 6 7 10 12 8 7 8 9 3 13 10 5 12 12 13 15 16 15 23 27 29 33 30 29 26 22 21 21 21 21 22 22 21 19 15 13 15
9 9 11 8 7 16 5 6 9 4 13 20 6 4 6 4 6 6 7 4 6 7 13 14 13 23 26 29 32 30 32 29 25 24 23 21 23 23 22 20 18 16 18 17
15 5 6 5 5 10 10 8 5 5 3 8 13 6 7 9 8 6 3 7 6 4 7 14 13 25 30 35 34 33 32 31 28 26 24 22 24 22 21 21 19 18 18 18
21 7 11 16 14 13 14 15 10 2 6 2 2 6 5 3 1 4 8 12 11 10 12 11 14 24 27 28 30 33 35 33 30 27 24 24 24 24 24 22 21 20 19 17
8 4 7 9 9 6 10 12 2 2 2 4 4 4 5 3 5 7 9 14 11 8 4 3 10 13 25 27 29 34 39 36 31 28 29 26 26 26 27 26 25 23 21 19
10 4 9 10 7 10 13 14 13 6 2 4 8 10 14 2 7 1 8 16 19 17 13 10 9 14 24 29 30 33 36 38 34 30 29 30 27 28 27 26 25 22 20 18
6 6 9 13 16 17 17 18 18 19 13 10 11 15 19 12 7 16 17 18 17 13 15 17 14 15 23 27 30 33 37 40 38 38 34 30 27 29 26 22 22 21 19 18
2 9 10 20 19 16 18 21 16 18 19 17 17 21 19 14 14 15 12 7 11 9 16 17 15 15 17 26 27 31 33 34 36 35 33 30 28 27 25 22 20 20 21 22
3 3 3 8 9 10 12 17 19 20 20 15 16 19 8 10 10 6 9 10 9 6 7 16 17 17 25 31 32 34 34 33 33 29 29 28 26 25 27 24 22 22 22 23
13 9 4 6 2 8 10 8 13 18 20 13 15 5 9 4 11 10 9 10 12 12 12 3 13 22 29 29 29 32 33 33 32 30 29 27 27 26 26 26 23 22 23 23
18 12 6 5 7 10 14 13 12 3 11 14 10 1 5 2 5 3 6 5 4 9 5 7 7 25 29 32 32 36 32 31 31 30 31 29 29 29 29 26 26 22 23 23
15 14 9 5 5 7 1 4 1 4 6 6 6 5 3 3 4 3 3 4 5 8 12 5 6 23 27 30 32 34 30 30 30 31 31 30 32 30 27 25 23 25 23 23
6 4 14 14 8 6 3 7 3 4 4 12 8 6 5 4 4 3 2 4 3 4 13 3 8 16 23 30 34 30 29 28 29 31 31 33 32 32 23 23 27 26 24 25
9 5 4 2 4 7 2 3 5 5 2 4 8 4 7 8 6 4 4 4 5 3 6 6 9 16 23 28 31 28 26 27 34 37 36 33 31 24 24 27 27 27 30 29
5 3 3 3 3 3 6 6 9 10 7 10 3 3 7 7 5 3 4 4 4 6 8 13 14 17 21 26 28 25 27 35 33 31 30 27 27 26 26 29 27 31 32 30
7 9 3 3 7 6 7 7 5 8 4 4 3 4 7 7 7 6 5 3 1 5 9 19 20 16 17 21 25 30 29 30 30 28 28 27 28 26 26 28 30 31 29 27
11 7 5 3 16 6 3 4 3 5 6 3 2 3 6 7 6 5 5 3 2 7 5 20 18 16 16 25 26 30 29 29 28 26 25 26 25 27 30 27 27 27 26 25
3 1 2 4 4 1 4 5 5 3 2 3 5 6 5 7 8 6 5 4 6 7 16 16 18 19 20 23 26 28 30 31 27 25 25 26 26 28 28 26 19 19 18 17
Wind_Direction
262 274 253 231 239 236 282 290 298 301 307 315 288 270 275 271 220 203 186 173 162 158 153 143 144 146 147 146 146 151 154 161 157 148 147 142 136 139 133 129 126 124 119 133
270 242 247 254 262 283 305 302 285 271 261 283 295 289 266 271 255 207 200 186 171 150 152 147 134 136 140 146 151 159 167 170 171 168 166 160 154 148 141 137 124 121 121 115
230 250 274 261 251 273 277 275 288 275 287 281 292 287 286 276 260 253 244 189 178 157 153 145 141 144 146 152 158 163 173 182 186 190 173 150 145 142 136 130 122 111 111 104
262 299 345 327 306 306 282 268 283 293 318 279 52 297 275 277 283 282 246 199 173 151 146 143 143 148 151 157 162 164 170 176 157 160 160 162 159 158 159 142 131 121 113 106
254 310 325 307 275 263 270 297 300 285 307 313 183 276 282 298 273 271 210 140 151 151 150 151 149 148 153 160 161 167 159 153 155 168 174 170 168 150 145 142 129 119 109 104
279 281 275 259 278 269 279 315 305 292 250 274 286 223 280 277 254 21 99 108 142 146 143 145 143 142 145 152 147 149 154 156 165 154 157 163 151 151 147 146 140 130 119 113
279 267 265 269 266 263 239 208 279 283 205 252 277 261 249 305 301 142 144 131 142 148 147 148 148 147 149 149 151 150 157 154 170 164 157 158 160 158 154 155 147 140 126 121
292 300 211 303 306 306 260 220 216 228 244 262 271 269 275 131 142 133 76 113 139 150 155 154 157 152 153 149 151 152 157 156 169 171 164 160 161 157 152 154 151 142 133 121
278 269 293 265 290 293 305 240 225 262 268 277 252 290 293 44 69 30 144 144 148 142 154 154 152 151 151 152 158 163 163 165 171 172 167 165 157 154 153 150 150 145 139 130
272 276 285 311 314 294 252 286 298 295 265 260 239 255 251 106 98 71 68 66 148 134 134 148 152 152 153 157 165 169 168 167 172 167 166 166 162 161 151 154 149 144 140 141
313 248 281 324 267 280 306 312 333 316 289 276 265 260 222 169 171 209 54 23 326 110 155 155 163 161 156 162 169 169 168 165 167 170 169 162 158 158 155 155 153 151 148 150
299 265 275 265 278 291 287 282 287 212 278 270 280 259 326 59 259 18 183 202 210 192 178 168 167 159 159 161 167 167 166 165 169 172 173 166 158 158 156 153 152 155 147 148
336 289 298 284 303 264 253 269 101 157 249 225 263 246 36 111 11 77 1 340 317 329 240 152 145 157 163 164 163 162 165 166 168 173 170 164 162 162 159 156 157 159 156 154
304 251 240 248 261 300 291 281 277 259 220 272 250 285 294 231 217 309 204 220 243 213 224 183 156 168 168 164 163 160 164 167 166 170 171 167 168 164 164 165 163 162 162 161
247 242 240 261 264 271 269 276 277 274 263 223 275 273 280 268 258 194 214 220 232 248 189 186 172 171 170 164 165 161 165 167 169 170 173 173 172 168 168 171 168 167 167 162
79 269 256 256 253 260 272 266 270 268 263 258 251 247 258 282 272 278 273 241 238 231 186 188 176 171 171 171 166 160 164 166 167 165 167 177 178 176 173 170 168 163 158 154
236 218 236 261 226 249 256 257 246 256 257 249 253 262 268 272 269 329 1 15 2 332 172 190 182 174 177 179 168 165 164 162 160 160 167 171 175 180 173 169 168 166 163 157
249 234 255 274 230 254 231 203 222 233 249 254 253 281 294 357 94 68 42 25 1 10 5 308 186 180 184 173 163 158 160 162 160 156 168 169 171 173 172 170 173 170 166 161
222 226 243 243 243 294 290 283 275 243 260 266 254 169 50 350 160 100 60 40 8 358 339 331 352 170 168 169 158 156 160 162 161 161 167 173 170 170 174 176 173 172 171 171
220 222 219 230 251 249 352 8 352 107 301 243 161 123 138 38 54 289 32 22 7 16 349 22 323 150 151 157 154 154 159 163 165 166 167 172 170 172 169 167 174 181 179 173
295 215 229 228 227 272 46 355 4 135 262 336 76 112 146 100 183 247 201 251 302 77 290 82 118 135 147 148 149 154 159 166 166 162 159 163 170 172 177 179 184 175 173 162
284 260 233 201 232 240 183 38 142 184 234 348 275 120 122 140 158 124 147 247 284 327 161 127 117 126 143 147 150 155 159 158 155 156 159 164 175 174 182 181 176 173 164 156
284 327 239 190 247 229 192 187 212 188 194 206 208 222 160 151 146 159 144 55 297 271 190 154 141 124 139 150 154 152 152 151 150 150 154 165 167 171 184 175 170 163 165 159
281 351 288 346 344 223 197 240 204 208 206 171 178 244 178 172 173 207 165 135 37 9 205 142 134 127 147 150 149 147 149 150 150 150 154 163 164 170 175 178 176 169 167 166
275 293 263 298 256 303 36 349 357 350 341 340 17 147 203 190 217 198 165 186 209 130 197 147 150 147 149 149 147 152 152 152 150 153 158 160 168 172 173 175 173 179 185 191
245 255 259 251 288 207 245 256 263 231 293 227 241 268 184 186 210 173 181 229 190 170 156 158 147 148 152 141 150 155 157 157 157 159 162 164 165 163 169 171 160 188 200 204